• In Deutschland
  • Länderverzeichnis
  • Für 7 Tage
  • Wassertemperatur
  • Satellitenkarten
  • Wetterkarte
  • Widgets
  • user-avatar
    Anmelden

    Stündliche Wetter Batatais

    Heute, 24 April, Dienstag

    Zeit Temperatur Niederschläge Wind Luftdruck Luftfeuchtigkeit
    00:00 +17°C° 0 mm 2 m/S 690 mmHg 92%
    01:00 +17°C° 0 mm 2 m/S 690 mmHg 93%
    02:00 +16°C° 0 mm 2 m/S 690 mmHg 94%
    03:00 +16°C° 0 mm 2 m/S 690 mmHg 95%
    04:00 +16°C° 0 mm 2 m/S 690 mmHg 95%
    05:00 +16°C° 0 mm 2 m/S 690 mmHg 95%
    06:00 +15°C° 0 mm 2 m/S 690 mmHg 96%
    07:00 +17°C° 0 mm 2 m/S 691 mmHg 90%
    08:00 +19°C° 0 mm 2 m/S 691 mmHg 84%
    09:00 +21°C° 0 mm 2 m/S 692 mmHg 79%
    10:00 +24°C° 0 mm 2 m/S 692 mmHg 72%
    11:00 +25°C° 0 mm 2 m/S 692 mmHg 66%
    12:00 +27°C° 0 mm 1 m/S 692 mmHg 59%
    13:00 +27°C° 0,1 mm 1 m/S 692 mmHg 58%
    14:00 +28°C° 0,1 mm 1 m/S 691 mmHg 57%
    15:00 +26°C° 0,1 mm 0 m/S 691 mmHg 55%
    16:00 +24°C° 0,1 mm 0 m/S 691 mmHg 61%
    17:00 +24°C° 0,1 mm 1 m/S 690 mmHg 67%
    18:00 +22°C° 0,1 mm 1 m/S 690 mmHg 73%
    19:00 +21°C° 0,1 mm 1 m/S 690 mmHg 76%
    20:00 +21°C° 0,1 mm 1 m/S 690 mmHg 78%
    21:00 +19°C° 0,1 mm 2 m/S 691 mmHg 81%
    22:00 +18°C° 0 mm 2 m/S 691 mmHg 83%
    23:00 +18°C° 0 mm 2 m/S 691 mmHg 85%

    Morgen, 25 April, Mittwoch

    Zeit Temperatur Niederschläge Wind Luftdruck Luftfeuchtigkeit
    00:00 +17°C° 0 mm 2 m/S 691 mmHg 88%
    01:00 +17°C° 0 mm 2 m/S 690 mmHg 89%
    02:00 +17°C° 0 mm 2 m/S 690 mmHg 91%
    03:00 +17°C° 0 mm 2 m/S 690 mmHg 93%
    04:00 +16°C° 0 mm 2 m/S 690 mmHg 94%
    05:00 +16°C° 0 mm 2 m/S 690 mmHg 94%
    06:00 +16°C° 0 mm 2 m/S 690 mmHg 95%
    07:00 +18°C° 0 mm 2 m/S 691 mmHg 89%
    08:00 +20°C° 0 mm 2 m/S 692 mmHg 83%
    09:00 +21°C° 0 mm 3 m/S 693 mmHg 77%
    10:00 +24°C° 0 mm 3 m/S 693 mmHg 72%
    11:00 +26°C° 0 mm 2 m/S 693 mmHg 66%
    12:00 +27°C° 0 mm 2 m/S 693 mmHg 60%
    13:00 +27°C° 0,3 mm 1 m/S 692 mmHg 60%
    14:00 +27°C° 0,3 mm 1 m/S 692 mmHg 59%
    15:00 +26°C° 0,3 mm 0 m/S 691 mmHg 59%
    16:00 +26°C° 0,3 mm 1 m/S 691 mmHg 66%
    17:00 +24°C° 0,3 mm 1 m/S 690 mmHg 73%
    18:00 +22°C° 0,3 mm 1 m/S 690 mmHg 79%
    19:00 +21°C° 0 mm 1 m/S 690 mmHg 82%
    20:00 +20°C° 0 mm 2 m/S 691 mmHg 85%
    21:00 +19°C° 0 mm 2 m/S 691 mmHg 88%
    22:00 +19°C° 0 mm 2 m/S 691 mmHg 89%
    23:00 +18°C° 0 mm 2 m/S 691 mmHg 91%

    übermorgen, 26 April, Donnerstag

    Zeit Temperatur Niederschläge Wind Luftdruck Luftfeuchtigkeit
    00:00 +18°C° 0 mm 2 m/S 691 mmHg 92%
    01:00 +18°C° 0 mm 2 m/S 690 mmHg 93%
    02:00 +17°C° 0 mm 2 m/S 690 mmHg 93%
    03:00 +17°C° 0 mm 2 m/S 690 mmHg 94%
    04:00 +17°C° 0 mm 2 m/S 690 mmHg 94%
    05:00 +17°C° 0 mm 2 m/S 690 mmHg 95%
    06:00 +16°C° 0 mm 2 m/S 690 mmHg 95%
    07:00 +18°C° 0 mm 2 m/S 691 mmHg 90%
    08:00 +20°C° 0 mm 2 m/S 691 mmHg 84%
    09:00 +21°C° 0 mm 2 m/S 692 mmHg 78%
    10:00 +24°C° 0 mm 2 m/S 692 mmHg 72%
    11:00 +26°C° 0 mm 2 m/S 692 mmHg 66%
    12:00 +27°C° 0 mm 2 m/S 692 mmHg 60%
    13:00 +27°C° 0,1 mm 2 m/S 692 mmHg 59%
    14:00 +28°C° 0,1 mm 1 m/S 691 mmHg 58%
    15:00 +28°C° 0,1 mm 1 m/S 690 mmHg 58%
    16:00 +26°C° 0,1 mm 1 m/S 690 mmHg 64%
    17:00 +24°C° 0,1 mm 1 m/S 689 mmHg 69%
    18:00 +23°C° 0,1 mm 1 m/S 689 mmHg 75%
    19:00 +22°C° 0 mm 1 m/S 689 mmHg 79%
    20:00 +20°C° 0 mm 2 m/S 689 mmHg 82%
    21:00 +19°C° 0 mm 2 m/S 690 mmHg 86%
    22:00 +19°C° 0 mm 2 m/S 690 mmHg 87%
    23:00 +19°C° 0 mm 2 m/S 690 mmHg 88%

    27 April, Freitag

    Zeit Temperatur Niederschläge Wind Luftdruck Luftfeuchtigkeit
    00:00 +18°C° 0 mm 2 m/S 690 mmHg 90%
    01:00 +18°C° 0 mm 2 m/S 690 mmHg 91%
    02:00 +18°C° 0 mm 2 m/S 690 mmHg 92%
    03:00 +17°C° 0 mm 2 m/S 689 mmHg 93%
    04:00 +17°C° 0 mm 2 m/S 689 mmHg 94%
    05:00 +17°C° 0 mm 2 m/S 690 mmHg 94%
    06:00 +17°C° 0 mm 2 m/S 690 mmHg 95%
    07:00 +19°C° 0 mm 2 m/S 690 mmHg 89%
    08:00 +20°C° 0 mm 2 m/S 691 mmHg 83%
    09:00 +23°C° 0 mm 2 m/S 692 mmHg 76%
    10:00 +25°C° 0 mm 2 m/S 692 mmHg 70%
    11:00 +26°C° 0 mm 2 m/S 692 mmHg 64%
    12:00 +28°C° 0 mm 2 m/S 692 mmHg 58%
    13:00 +28°C° 0 mm 2 m/S 691 mmHg 57%
    14:00 +28°C° 0 mm 2 m/S 691 mmHg 57%
    15:00 +28°C° 0 mm 1 m/S 690 mmHg 56%
    16:00 +26°C° 0 mm 1 m/S 690 mmHg 62%
    17:00 +25°C° 0 mm 1 m/S 689 mmHg 68%
    18:00 +23°C° 0 mm 1 m/S 689 mmHg 74%
    19:00 +22°C° 0 mm 1 m/S 689 mmHg 76%
    20:00 +21°C° 0 mm 1 m/S 690 mmHg 79%
    21:00 +20°C° 0 mm 2 m/S 690 mmHg 81%
    22:00 +19°C° 0 mm 2 m/S 690 mmHg 83%
    23:00 +19°C° 0 mm 2 m/S 690 mmHg 85%

    28 April, Samstag

    Zeit Temperatur Niederschläge Wind Luftdruck Luftfeuchtigkeit
    00:00 +18°C° 0 mm 2 m/S 690 mmHg 87%
    01:00 +18°C° 0 mm 2 m/S 690 mmHg 88%
    02:00 +18°C° 0 mm 2 m/S 690 mmHg 89%
    03:00 +18°C° 0 mm 1 m/S 689 mmHg 91%
    04:00 +18°C° 0 mm 1 m/S 690 mmHg 91%
    05:00 +17°C° 0 mm 2 m/S 690 mmHg 92%
    06:00 +17°C° 0 mm 2 m/S 690 mmHg 92%
    07:00 +19°C° 0 mm 2 m/S 691 mmHg 87%
    08:00 +20°C° 0 mm 2 m/S 691 mmHg 81%
    09:00 +23°C° 0 mm 2 m/S 692 mmHg 76%
    10:00 +25°C° 0 mm 2 m/S 692 mmHg 70%
    11:00 +26°C° 0 mm 2 m/S 692 mmHg 63%
    12:00 +28°C° 0 mm 2 m/S 692 mmHg 57%
    13:00 +28°C° 0,1 mm 1 m/S 692 mmHg 56%
    14:00 +29°C° 0,1 mm 1 m/S 691 mmHg 55%
    15:00 +27°C° 0,1 mm 0 m/S 690 mmHg 54%
    16:00 +25°C° 0 mm 0 m/S 690 mmHg 60%
    17:00 +23°C° 0 mm 0 m/S 690 mmHg 65%
    18:00 +21°C° 0 mm 0 m/S 689 mmHg 70%
    19:00 +20°C° 0 mm 0 m/S 690 mmHg 73%
    20:00 +22°C° 0 mm 1 m/S 690 mmHg 75%
    21:00 +21°C° 0 mm 1 m/S 690 mmHg 78%
    22:00 +20°C° 0 mm 1 m/S 690 mmHg 80%
    23:00 +20°C° 0 mm 1 m/S 690 mmHg 83%

    29 April, Sonntag

    Zeit Temperatur Niederschläge Wind Luftdruck Luftfeuchtigkeit
    00:00 +20°C° 0 mm 1 m/S 690 mmHg 85%
    01:00 +19°C° 0 mm 1 m/S 690 mmHg 87%
    02:00 +19°C° 0 mm 1 m/S 690 mmHg 88%
    03:00 +19°C° 0 mm 1 m/S 689 mmHg 90%
    04:00 +19°C° 0 mm 1 m/S 690 mmHg 91%
    05:00 +18°C° 0 mm 1 m/S 690 mmHg 92%
    06:00 +18°C° 0 mm 1 m/S 690 mmHg 93%
    07:00 +20°C° 0 mm 1 m/S 691 mmHg 87%
    08:00 +22°C° 0 mm 1 m/S 691 mmHg 81%
    09:00 +24°C° 0 mm 2 m/S 692 mmHg 74%
    10:00 +25°C° 0,1 mm 1 m/S 692 mmHg 69%
    11:00 +27°C° 0,1 mm 1 m/S 692 mmHg 63%
    12:00 +28°C° 0,1 mm 1 m/S 692 mmHg 57%
    13:00 +28°C° 0,1 mm 1 m/S 691 mmHg 56%
    14:00 +29°C° 0,1 mm 1 m/S 690 mmHg 55%
    15:00 +27°C° 0,1 mm 0 m/S 690 mmHg 54%
    16:00 +25°C° 0,2 mm 0 m/S 690 mmHg 59%
    17:00 +23°C° 0,2 mm 0 m/S 689 mmHg 65%
    18:00 +23°C° 0,2 mm 1 m/S 689 mmHg 71%
    19:00 +23°C° 0,4 mm 1 m/S 689 mmHg 74%
    20:00 +22°C° 0,4 mm 1 m/S 690 mmHg 77%
    21:00 +21°C° 0,4 mm 1 m/S 690 mmHg 81%
    22:00 +21°C° 0 mm 1 m/S 690 mmHg 83%
    23:00 +19°C° 0 mm 2 m/S 690 mmHg 85%
    Mehr zeigen